Powrót do katalogu

ARIANE 1 DEB

AktywnySSO
NORAD 17423·DEBRIS·🇫🇷 France

Wystrzelony Feb 22, 1986 z Guiana Space Centre

Loading…

Następne Przeloty (najbliższe 24 godziny)

TLE

ŚwieżeSource: Space-Track

Epoka: Sep 13, 2026, 00:08 UTC

1 17423U 86019FJ  26256.00606497 -.00000054  00000-0 -74537-5 0  9996
2 17423  98.7040 266.6317 0174725 144.0417 247.2304 14.02925452 27358

Śledź ARIANE 1 DEB w czasie rzeczywistym z AllMySat

Download on the App Store